Regional Weather Roundup
Issued by NWS

Home | Current Version | Previous Version | Text Only | Print | Product List | Glossary Off
Versions: 1 2 3 4 5 6 7 8 9 10 11 12 13 14 15 16 17 18 19 20 21 22 23 24 25 26 27 28 29 30 31 32 33 34 35 36 37 38 39 40 41 42 43 44 45 46 47 48 49 50

000
ASUS43 KMKX 181800
RWRWI

WISCONSIN REGIONAL WEATHER ROUNDUP
NATIONAL WEATHER SERVICE MILWAUKEE/SULLIVAN WI
100 PM CDT WED OCT 18 2017

NOTE: "FAIR" INDICATES FEW OR NO CLOUDS BELOW 12,000 FEET WITH NO
SIGNIFICANT WEATHER AND/OR OBSTRUCTIONS TO VISIBILITY.

WIZ001-002-006>008-014>016-023>028-181900-
NORTHWEST WISCONSIN

CITY           SKY/WX    TMP DP  RH WIND       PRES   REMARKS
SUPERIOR ARPT  PTSUNNY   65  45  47 SW12G22   29.70F
ASHLAND        MOSUNNY   70  46  42 S18G26    29.68F
6HR MIN TEMP:  48; 6HR MAX TEMP:  70;

HAYWARD        MOSUNNY   66  45  46 SW17      29.75F
6HR MIN TEMP:  50; 6HR MAX TEMP:  67;

SIREN          MOSUNNY   64  46  51 W15       29.79S
CUMBERLAND     SUNNY     63  45  51 SW17      29.80S
RICE LAKE      SUNNY     67  46  48 S15       29.82S HAZE
CHETEK         SUNNY     66  50  55 S12G17    29.82R
LADYSMITH      CLOUDY    67  49  52 S15       29.83R
EAU CLAIRE     NOT AVBL
MENOMONIE      SUNNY     68  49  50 SW13G18   29.83S
NEW RICHMOND   PTSUNNY   64  46  53 SW14      29.82S
OSCEOLA        PTSUNNY   64  48  56 SW13G18   29.84S
$$

WIZ003>005-009-010-017-018-181900-
NORTH CENTRAL WISCONSIN

CITY           SKY/WX    TMP DP  RH WIND       PRES   REMARKS
MANITOWISH WTR CLOUDY    68  46  44 S15G26    29.78F
ARBOR VITAE    SUNNY     67  48  49 SW18G26   29.80F
WOODRUFF       SUNNY     67  48  49 SW18G26   29.80F
RHINELANDER    SUNNY     67  48  50 S18G29    29.82F
6HR MIN TEMP:  49; 6HR MAX TEMP:  67;

EAGLE RIVER    SUNNY     66  44  44 SW12G21   29.81F
LAND O LAKES   SUNNY     67  44  42 SW16G26   29.81F
PHILLIPS       CLOUDY    67  47  48 SW16G24   29.80S
TOMAHAWK       SUNNY     67  47  49 S8        29.84F
MEDFORD        SUNNY     64  47  53 S16G24    29.85F
MERRILL        SUNNY     67  48  50 S15G23    29.86F
$$

WIZ029-030-035-036-043>047-181900-
CENTRAL WISCONSIN

CITY           SKY/WX    TMP DP  RH WIND       PRES   REMARKS
WAUSAU         LGT RAIN  66  47  50 S16G26    29.85F
6HR MIN TEMP:  46; 6HR MAX TEMP:  66; 6HR PCP: TRACE;

MOSINEE        MOSUNNY   64  48  55 S15G25    29.89F
MARSHFIELD     SUNNY     68  46  45 SW16G25   29.86F
6HR MIN TEMP:  45; 6HR MAX TEMP:  68;

STEVENS POINT  SUNNY     66  46  49 S15G25    29.91F
WAUPACA        SUNNY     69  47  45 S12G21    29.93F
WAUTOMA        SUNNY     69  47  45 S17G25    29.93F
6HR MIN TEMP:  37; 6HR MAX TEMP:  69;

WISC RAPIDS    SUNNY     67  48  50 SW16G25   29.91F
6HR MIN TEMP:  49; 6HR MAX TEMP:  68;

CAMP DOUGLAS   NOT AVBL
$$

WIZ011>013-019>022-031-037>040-048>050-181900-
NORTHEAST WISCONSIN

CITY           SKY/WX    TMP DP  RH WIND       PRES   REMARKS
ANTIGO         SUNNY     65  49  55 SW18      29.88F
SHAWANO        SUNNY     69  48  46 SW10      29.91F
OCONTO         SUNNY     67  47  48 SW15G24   29.92F
STURGEON BAY   SUNNY     65  50  58 S18       29.92F
6HR MIN TEMP:  50; 6HR MAX TEMP:  68;

GREEN BAY      SUNNY     66  50  56 S16G23    29.93F
6HR MIN TEMP:  50; 6HR MAX TEMP:  66;

MANITOWOC      SUNNY     63  50  62 S20       29.96F
6HR MIN TEMP:  48; 6HR MAX TEMP:  65;

APPLETON       SUNNY     66  43  42 S20       29.93
CLINTONVILLE   NOT AVBL
OSHKOSH        SUNNY     68  49  50 S20G25    29.95F
6HR MIN TEMP:  49; 6HR MAX TEMP:  68;

$$

WIZ032>034-041-042-053>061-181900-
SOUTHWEST WISCONSIN

CITY           SKY/WX    TMP DP  RH WIND       PRES   REMARKS
LA CROSSE      SUNNY     69  49  48 S20       29.87F
6HR MIN TEMP:  54; 6HR MAX TEMP:  69;

SPARTA         SUNNY     67  49  50 S12G21    29.91F
VIROQUA        SUNNY     67  49  52 S14G20    29.94F
BOSCOBEL       SUNNY     71  47  42 S12G20    29.95F
6HR MIN TEMP:  40; 6HR MAX TEMP:  72;

PRAIRIE DU CHI SUNNY     69  44  40 S14       29.95F
PLATTEVILLE    SUNNY     67  48  50 S20       30.01F
$$

WIZ056-057-062-063-064-067-068-181900-
SOUTH CENTRAL WISCONSIN

CITY           SKY/WX    TMP DP  RH WIND       PRES   REMARKS
REEDSBURG      SUNNY     68  49  50 S12G21    29.95F
BARABOO/DELLS  SUNNY     66  45  47 S17G24    29.96F
LONE ROCK      NOT AVBL
MINERAL POINT  SUNNY     68  46  45 S15G21    30.00F
MADISON        SUNNY     67  47  48 S15G23    29.99F
6HR MIN TEMP:  48; 6HR MAX TEMP:  67;

MIDDLETON      SUNNY     68  46  44 S18G25    30.00F
WATERTOWN      SUNNY     68  47  47 S21G28    30.01F
MONROE         SUNNY     68  45  42 S20       30.02F
JANESVILLE     SUNNY     72  45  37 SW21G26   30.03F
$$

WIZ051-052-058>065-066-070>072-181900-
SOUTHEAST WISCONSIN

CITY           SKY/WX    TMP DP  RH WIND       PRES   REMARKS
MILWAUKEE      SUNNY     70  45  40 S17G28    30.04F
6HR MIN TEMP:  50; 6HR MAX TEMP:  70;

WAUKESHA       SUNNY     66  43  42 SW13G23   30.03F
MILWAUKEE/TIMM SUNNY     70  39  32 SW20      30.03F
RACINE         SUNNY     70  44  39 S13G24    30.06F
6HR MIN TEMP:  50; 6HR MAX TEMP:  70;

BURLINGTON     SUNNY     70  46  43 S18G26    30.05F
KENOSHA        SUNNY     69  43  38 S17G25    30.06F
6HR MIN TEMP:  49; 6HR MAX TEMP:  69;

FOND DU LAC    SUNNY     69  44  40 SW17G24   29.96F
6HR MIN TEMP:  52; 6HR MAX TEMP:  69;

SHEBOYGAN      SUNNY     71  48  43 SW23G31   29.98F
6HR MIN TEMP:  45; 6HR MAX TEMP:  71;

WEST BEND      SUNNY     68  43  40 SW22G30   30.00F
JUNEAU         SUNNY     66  46  49 S15G24    30.02F
$$

LSZ147-162-181900-
LAKE SUPERIOR

STATION/POSITION TIME  TEMP    WIND        PRES    WAVE
                       AIR SEA DIR/SP/G            HT/PER
                 (UTC) (F)     (DEG/KT/KT) (MB)    (FT/S)
W MID LAKE BUOY  1650   55 53              1005.2R   3/ 5
DEVILS ISLAND    1700   57     260/ 13/ 15 1005.1F
PORT WING        1636          210/ 16/ 26 1005.8F
SAXON HARBOR     1740   71     210/ 15/ 24 1004.7F
$$

LMZ867-665-643>646-181900-
LAKE MICHIGAN

STATION/POSITION TIME  TEMP    WIND        PRES    WAVE
                       AIR SEA DIR/SP/G            HT/PER
                 (UTC) (F)     (DEG/KT/KT) (MB)    (FT/S)
S GREEN BAY BUOY 1730   61 58  210/ 16/ 17 1013.2F
N MID LAKE BUOY  1650   60 59  190/ 23/ 29 1014.3F   7/ 6
NORTHPORT PIER   1740   62     160/ 11/ 16 1012.9F
KEWAUNEE LAKESHO 1730   57     180/ 20/ 23 1014.2S
SHEBOYGAN LAKESH 1700   56     180/ 22/ 25 1015.7F
PORT WASHINGTON  1740   69     210/ 10/ 17 1016.9F
ATWATER BUOY     1609   59 53  180/ 12/ 16 1017.6F
MILWAUKEE LAKESH 1730   66     210/ 18/ 20   N/A
S MID LAKE BUOY  1650   59 61  190/ 21/ 25 1019.2F   5/ 6
KENOSHA   LAKESH 1700   59     170/ 13/ 20 1018.3
$$

TC  - TEMPERATURE IN CELSIUS
VSB - VISIBILITY IN STATUTE MILES
WCI - WIND CHILL INDEX
HX  - HEAT INDEX




USA.gov is the U.S. government's official web portal to all federal, state and local government web resources and services.